﻿_id,日時,平均風速(m/s),平均風向,最大瞬間風速(m/s),最大風速時風向,気温(℃),湿度(%),10分間移動積算雨量(mm),1時間移動積算雨量(mm),日雨量(mm),累計雨量(mm)
1,2021-01-18T00:00:00,0.8,東,1.6,東北東,-1.4,77,0,0,0,0
2,2021-01-18T00:01:00,0.8,東,1.6,東北東,-1.5,76.9,0,0,0,0
3,2021-01-18T00:02:00,0.7,東,1.6,東北東,-1.5,77,0,0,0,0
4,2021-01-18T00:03:00,0.7,東南東,1.6,東北東,-1.5,77.1,0,0,0,0
5,2021-01-18T00:04:00,0.6,東南東,1.6,東北東,-1.5,77.1,0,0,0,0
6,2021-01-18T00:05:00,0.5,南東,1.5,東北東,-1.6,77.3,0,0,0,0
7,2021-01-18T00:06:00,0.5,南東,1,南南西,-1.5,77.5,0,0,0,0
8,2021-01-18T00:07:00,0.5,南南東,1.1,南,-1.6,77.7,0,0,0,0
9,2021-01-18T00:08:00,0.5,南南東,1.2,南南東,-1.8,77.3,0,0,0,0
10,2021-01-18T00:09:00,0.5,南南東,1.2,南南東,-1.8,77.7,0,0,0,0
11,2021-01-18T00:10:00,0.5,南南東,1.2,南南東,-1.8,78.2,0,0,0,0
12,2021-01-18T00:11:00,0.5,南南東,1.2,南南東,-1.7,78.5,0,0,0,0
13,2021-01-18T00:12:00,0.4,南南東,1.2,南南東,-1.7,78.9,0,0,0,0
14,2021-01-18T00:13:00,0.4,南南東,1.2,南南東,-1.6,78.9,0,0,0,0
15,2021-01-18T00:14:00,0.4,南南東,1.2,南南東,-1.5,79.4,0,0,0,0
16,2021-01-18T00:15:00,0.3,南南東,1.2,南南東,-1.4,79.5,0,0,0,0
17,2021-01-18T00:16:00,0.3,南,1.2,南南東,-1.5,78.1,0,0,0,0
18,2021-01-18T00:17:00,0.3,南西,1.2,南南東,-1.6,77.8,0,0,0,0
19,2021-01-18T00:18:00,0.2,静穏,1.1,南東,-1.5,77.9,0,0,0,0
20,2021-01-18T00:19:00,0.2,静穏,0.7,南南東,-1.6,77.9,0,0,0,0
21,2021-01-18T00:20:00,0.2,静穏,0.7,東南東,-1.7,77.6,0,0,0,0
22,2021-01-18T00:21:00,0.2,静穏,0.9,南東,-1.6,77.8,0,0,0,0
23,2021-01-18T00:22:00,0.2,静穏,0.9,南東,-1.6,78.2,0,0,0,0
24,2021-01-18T00:23:00,0.3,南,0.9,南東,-1.5,78.5,0,0,0,0
25,2021-01-18T00:24:00,0.3,南,1,東南東,-1.3,78.8,0,0,0,0
26,2021-01-18T00:25:00,0.3,南南東,1,東南東,-1.3,78.3,0,0,0,0
27,2021-01-18T00:26:00,0.3,南南東,1,東南東,-1.4,77.8,0,0,0,0
28,2021-01-18T00:27:00,0.3,南南東,1,東南東,-1.5,77.6,0,0,0,0
29,2021-01-18T00:28:00,0.2,静穏,1,東南東,-1.5,77.6,0,0,0,0
30,2021-01-18T00:29:00,0.2,静穏,1,東南東,-1.6,77.7,0,0,0,0
31,2021-01-18T00:30:00,0.2,静穏,1,東南東,-1.7,77.9,0,0,0,0
32,2021-01-18T00:31:00,0.2,静穏,1,東南東,-1.7,78.1,0,0,0,0
33,2021-01-18T00:32:00,0.2,静穏,1,東南東,-1.7,77.8,0,0,0,0
34,2021-01-18T00:33:00,0.2,静穏,1,東南東,-1.6,78.5,0,0,0,0
35,2021-01-18T00:34:00,0.1,静穏,0.8,東,-1.5,78.8,0,0,0,0
36,2021-01-18T00:35:00,0.1,静穏,0.8,東,-1.6,78.5,0,0,0,0
37,2021-01-18T00:36:00,0.1,静穏,0.8,東,-1.6,78.3,0,0,0,0
38,2021-01-18T00:37:00,0.1,静穏,0.8,東,-1.4,78.8,0,0,0,0
39,2021-01-18T00:38:00,0.2,静穏,0.8,東,-1.6,78.1,0,0,0,0
40,2021-01-18T00:39:00,0.2,静穏,0.8,東,-1.7,77.3,0,0,0,0
41,2021-01-18T00:40:00,0.2,静穏,0.8,東,-1.6,78.3,0,0,0,0
42,2021-01-18T00:41:00,0.2,静穏,0.8,南南西,-1.5,78.6,0,0,0,0
43,2021-01-18T00:42:00,0.2,静穏,0.8,南南西,-1.7,78,0,0,0,0
44,2021-01-18T00:43:00,0.3,南西,0.8,南南西,-1.9,77.5,0,0,0,0
45,2021-01-18T00:44:00,0.3,南南西,0.8,南南西,-2,78,0,0,0,0
46,2021-01-18T00:45:00,0.3,南南西,0.8,南南西,-2,78.5,0,0,0,0
47,2021-01-18T00:46:00,0.4,南南西,0.8,南南西,-1.8,79.3,0,0,0,0
48,2021-01-18T00:47:00,0.3,南,0.8,南南西,-1.9,79.3,0,0,0,0
49,2021-01-18T00:48:00,0.4,南南東,0.9,東北東,-1.9,79.1,0,0,0,0
50,2021-01-18T00:49:00,0.4,南東,0.9,東北東,-1.9,79.4,0,0,0,0
51,2021-01-18T00:50:00,0.4,南東,0.9,東北東,-1.9,79.7,0,0,0,0
52,2021-01-18T00:51:00,0.5,東南東,0.9,東北東,-2,79.2,0,0,0,0
53,2021-01-18T00:52:00,0.4,東,0.9,東北東,-2,79.1,0,0,0,0
54,2021-01-18T00:53:00,0.5,東,0.9,東北東,-2,79.4,0,0,0,0
55,2021-01-18T00:54:00,0.5,東,0.9,東北東,-1.7,80.1,0,0,0,0
56,2021-01-18T00:55:00,0.4,東,0.9,東北東,-1.6,80.7,0,0,0,0
57,2021-01-18T00:56:00,0.5,東,0.9,東北東,-1.6,80,0,0,0,0
58,2021-01-18T00:57:00,0.5,東,1,南西,-1.8,78.8,0,0,0,0
59,2021-01-18T00:58:00,0.5,東南東,1,南西,-1.6,79.1,0,0,0,0
60,2021-01-18T00:59:00,0.4,南東,1,南西,-1.6,79.7,0,0,0,0
61,2021-01-18T01:00:00,0.4,南南東,1,南西,-1.7,78.9,0,0,0,0
62,2021-01-18T01:01:00,0.4,南南東,1,南西,-2,78.3,0,0,0,0
63,2021-01-18T01:02:00,0.5,南,1,南西,-2,78.3,0,0,0,0
64,2021-01-18T01:03:00,0.5,南,1,南西,-2.1,78.7,0,0,0,0
65,2021-01-18T01:04:00,0.4,南,1,南西,-2.2,78.9,0,0,0,0
66,2021-01-18T01:05:00,0.4,南南西,1,南西,-2,80,0,0,0,0
67,2021-01-18T01:06:00,0.4,南南西,1,南西,-2,80.4,0,0,0,0
68,2021-01-18T01:07:00,0.3,南南西,0.9,南南東,-1.8,80.5,0,0,0,0
69,2021-01-18T01:08:00,0.3,南南西,0.9,南南東,-1.9,80.5,0,0,0,0
70,2021-01-18T01:09:00,0.3,南南西,0.9,南南東,-2.1,79.5,0,0,0,0
71,2021-01-18T01:10:00,0.3,南西,0.9,南南東,-2.1,79.4,0,0,0,0
72,2021-01-18T01:11:00,0.4,南西,1.1,西,-2,79.6,0,0,0,0
73,2021-01-18T01:12:00,0.4,南西,1.1,西,-1.8,80.5,0,0,0,0
74,2021-01-18T01:13:00,0.3,南西,1.1,西,-1.8,80.3,0,0,0,0
75,2021-01-18T01:14:00,0.3,西南西,1.1,西,-1.8,80,0,0,0,0
76,2021-01-18T01:15:00,0.3,西南西,1.1,西,-1.6,80.6,0,0,0,0
77,2021-01-18T01:16:00,0.3,西,1.1,西,-1.8,79.7,0,0,0,0
78,2021-01-18T01:17:00,0.3,西,1.1,西,-1.7,79.6,0,0,0,0
79,2021-01-18T01:18:00,0.3,西,1.1,西,-1.8,79.2,0,0,0,0
80,2021-01-18T01:19:00,0.4,西北西,1.4,西北西,-1.9,78.8,0,0,0,0
81,2021-01-18T01:20:00,0.4,西北西,1.4,西北西,-1.8,79.2,0,0,0,0
82,2021-01-18T01:21:00,0.3,西北西,1.4,西北西,-1.8,79.8,0,0,0,0
83,2021-01-18T01:22:00,0.4,西北西,1.4,西北西,-1.8,79.7,0,0,0,0
84,2021-01-18T01:23:00,0.5,北西,1.7,北西,-1.8,79.3,0,0,0,0
85,2021-01-18T01:24:00,0.6,北西,1.7,北西,-1.8,79.4,0,0,0,0
86,2021-01-18T01:25:00,0.7,北西,1.7,北西,-1.8,79.5,0,0,0,0
87,2021-01-18T01:26:00,0.7,北西,1.7,北西,-1.8,79.7,0,0,0,0
88,2021-01-18T01:27:00,0.7,西北西,1.7,北西,-1.8,79.6,0,0,0,0
89,2021-01-18T01:28:00,0.6,西北西,1.7,北西,-2,78.7,0,0,0,0
90,2021-01-18T01:29:00,0.5,西北西,1.7,北西,-1.9,79.4,0,0,0,0
91,2021-01-18T01:30:00,0.5,北西,1.7,北西,-1.9,79.5,0,0,0,0
92,2021-01-18T01:31:00,0.5,西北西,1.7,北西,-1.9,79.4,0,0,0,0
93,2021-01-18T01:32:00,0.4,西北西,1.7,北西,-1.8,80.1,0,0,0,0
94,2021-01-18T01:33:00,0.3,西南西,1.4,北北西,-1.9,79.6,0,0,0,0
95,2021-01-18T01:34:00,0.2,静穏,1.2,北西,-2,79.3,0,0,0,0
96,2021-01-18T01:35:00,0.2,静穏,0.6,南東,-2.1,79.3,0,0,0,0
97,2021-01-18T01:36:00,0.2,静穏,0.7,東,-2.2,79.4,0,0,0,0
98,2021-01-18T01:37:00,0.2,静穏,0.7,東,-2.2,79.5,0,0,0,0
99,2021-01-18T01:38:00,0.3,東南東,0.9,東南東,-2.2,79.9,0,0,0,0
100,2021-01-18T01:39:00,0.3,東南東,0.9,東南東,-2.1,80.3,0,0,0,0
101,2021-01-18T01:40:00,0.4,東南東,1,南東,-2.1,80.6,0,0,0,0
102,2021-01-18T01:41:00,0.5,東南東,1.1,南東,-2.1,80.3,0,0,0,0
103,2021-01-18T01:42:00,0.5,東南東,1.2,南東,-2,80.5,0,0,0,0
104,2021-01-18T01:43:00,0.6,東南東,1.2,南東,-2,80.6,0,0,0,0
105,2021-01-18T01:44:00,0.6,東南東,1.2,南東,-1.9,80.9,0,0,0,0
106,2021-01-18T01:45:00,0.6,南東,1.2,南東,-2.1,80.2,0,0,0,0
107,2021-01-18T01:46:00,0.5,南東,1.2,南東,-2.1,80.1,0,0,0,0
108,2021-01-18T01:47:00,0.6,東南東,1.2,南東,-2.2,80,0,0,0,0
109,2021-01-18T01:48:00,0.6,東南東,1.2,南東,-2.2,80.2,0,0,0,0
110,2021-01-18T01:49:00,0.6,東南東,1.2,南東,-2.3,80.2,0,0,0,0
111,2021-01-18T01:50:00,0.6,東南東,1.2,南東,-2.2,80.7,0,0,0,0
112,2021-01-18T01:51:00,0.5,東南東,1.2,南東,-2.3,80.7,0,0,0,0
113,2021-01-18T01:52:00,0.5,東,1.2,南東,-2.4,80.3,0,0,0,0
114,2021-01-18T01:53:00,0.5,東,1.1,東北東,-2.4,80.6,0,0,0,0
115,2021-01-18T01:54:00,0.5,東,1.1,東北東,-2.4,80.8,0,0,0,0
116,2021-01-18T01:55:00,0.6,東,1.1,東北東,-2.4,81,0,0,0,0
117,2021-01-18T01:56:00,0.6,東,1.1,東北東,-2.2,81.4,0,0,0,0
118,2021-01-18T01:57:00,0.6,東南東,1.1,東北東,-2.3,81.2,0,0,0,0
119,2021-01-18T01:58:00,0.6,東南東,1,南南東,-2.2,80.9,0,0,0,0
120,2021-01-18T01:59:00,0.6,東南東,1,南南東,-2,81.9,0,0,0,0
121,2021-01-18T02:00:00,0.6,東南東,1.2,南東,-1.9,81.5,0,0,0,0
122,2021-01-18T02:01:00,0.7,南東,1.6,南東,-1.9,80.9,0,0,0,0
123,2021-01-18T02:02:00,0.8,南東,1.6,南東,-2,80.2,0,0,0,0
124,2021-01-18T02:03:00,0.9,南東,1.9,東南東,-2,80,0,0,0,0
125,2021-01-18T02:04:00,0.9,南東,1.9,東南東,-2.2,79.3,0,0,0,0
126,2021-01-18T02:05:00,1,東南東,1.9,東南東,-2.3,79.4,0,0,0,0
127,2021-01-18T02:06:00,1,東南東,1.9,東南東,-2.4,79.5,0,0,0,0
128,2021-01-18T02:07:00,1,東南東,1.9,東南東,-2.5,79.7,0,0,0,0
129,2021-01-18T02:08:00,1,東,1.9,東南東,-2.4,80.4,0,0,0,0
130,2021-01-18T02:09:00,1,東,1.9,東南東,-2.4,80.9,0,0,0,0
131,2021-01-18T02:10:00,1,東,1.9,東南東,-2.4,81.3,0,0,0,0
132,2021-01-18T02:11:00,0.9,東北東,1.9,東南東,-2.4,81.4,0,0,0,0
133,2021-01-18T02:12:00,0.8,東北東,1.9,東南東,-2.2,81.6,0,0,0,0
134,2021-01-18T02:13:00,0.7,東北東,1.5,東北東,-2.3,81.4,0,0,0,0
135,2021-01-18T02:14:00,0.6,東北東,1.5,東北東,-2.4,80.9,0,0,0,0
136,2021-01-18T02:15:00,0.6,東北東,1.5,東北東,-2.4,80.7,0,0,0,0
137,2021-01-18T02:16:00,0.5,東,1.3,東北東,-2.3,81.2,0,0,0,0
138,2021-01-18T02:17:00,0.5,東南東,1.1,南南西,-2.1,81.7,0,0,0,0
139,2021-01-18T02:18:00,0.5,南東,1.1,南南西,-2.3,81.1,0,0,0,0
140,2021-01-18T02:19:00,0.4,南南東,1.1,南南西,-2.3,80.9,0,0,0,0
141,2021-01-18T02:20:00,0.4,南南東,1.1,南南西,-2.2,81.1,0,0,0,0
142,2021-01-18T02:21:00,0.4,南南東,1.1,南南西,-2,81.4,0,0,0,0
143,2021-01-18T02:22:00,0.4,南南東,1.1,南南西,-2,81.5,0,0,0,0
144,2021-01-18T02:23:00,0.4,南南東,1.1,南南西,-1.9,80.9,0,0,0,0
145,2021-01-18T02:24:00,0.4,南南東,1.1,南南西,-2.1,80.1,0,0,0,0
146,2021-01-18T02:25:00,0.4,南南東,1.1,南南西,-2.2,80,0,0,0,0
147,2021-01-18T02:26:00,0.4,南東,1.1,南南西,-2.3,79.7,0,0,0,0
148,2021-01-18T02:27:00,0.4,南東,0.8,南,-2.3,79.9,0,0,0,0
149,2021-01-18T02:28:00,0.4,東南東,0.7,東北東,-2.3,80.3,0,0,0,0
150,2021-01-18T02:29:00,0.4,東南東,0.7,東北東,-2.2,80.7,0,0,0,0
151,2021-01-18T02:30:00,0.4,東南東,0.7,東北東,-2.2,80.4,0,0,0,0
152,2021-01-18T02:31:00,0.4,東南東,0.9,南南東,-2.3,80.2,0,0,0,0
153,2021-01-18T02:32:00,0.4,東南東,1.1,南南東,-2.4,80,0,0,0,0
154,2021-01-18T02:33:00,0.5,東南東,1.1,南南東,-2.3,80.3,0,0,0,0
155,2021-01-18T02:34:00,0.5,東南東,1.1,南南東,-2.3,80.6,0,0,0,0
156,2021-01-18T02:35:00,0.5,東南東,1.1,南南東,-2.3,80.7,0,0,0,0
157,2021-01-18T02:36:00,0.5,南東,1.2,南東,-2.5,79.8,0,0,0,0
158,2021-01-18T02:37:00,0.5,南東,1.2,南東,-2.4,80.2,0,0,0,0
159,2021-01-18T02:38:00,0.6,南東,1.2,南東,-2.2,81.2,0,0,0,0
160,2021-01-18T02:39:00,0.6,南東,1.2,南東,-2.2,81.4,0,0,0,0
161,2021-01-18T02:40:00,0.6,南東,1.2,南東,-2.2,80.9,0,0,0,0
162,2021-01-18T02:41:00,0.6,南東,1.2,南東,-2.3,80.4,0,0,0,0
163,2021-01-18T02:42:00,0.6,南東,1.2,南東,-2.5,79.6,0,0,0,0
164,2021-01-18T02:43:00,0.6,南東,1.5,南南東,-2.6,79.7,0,0,0,0
165,2021-01-18T02:44:00,0.6,南東,1.5,南南東,-2.7,79.8,0,0,0,0
166,2021-01-18T02:45:00,0.7,南東,1.5,南南東,-2.7,80,0,0,0,0
167,2021-01-18T02:46:00,0.7,南東,1.5,南南東,-2.7,80.5,0,0,0,0
168,2021-01-18T02:47:00,0.8,南南東,1.5,南南東,-2.6,81,0,0,0,0
169,2021-01-18T02:48:00,0.8,南南東,1.5,南南東,-2.5,81.6,0,0,0,0
170,2021-01-18T02:49:00,0.8,南南東,1.5,南南東,-2.5,81.5,0,0,0,0
171,2021-01-18T02:50:00,0.8,南南東,1.5,南南東,-2.5,81.3,0,0,0,0
172,2021-01-18T02:51:00,0.8,南東,1.5,南南東,-2.4,81.5,0,0,0,0
173,2021-01-18T02:52:00,0.7,南東,1.5,南南東,-2.4,81.7,0,0,0,0
174,2021-01-18T02:53:00,0.7,南東,1.5,南南東,-2.2,81.7,0,0,0,0
175,2021-01-18T02:54:00,0.6,南東,1.5,南南東,-2,82.2,0,0,0,0
176,2021-01-18T02:55:00,0.6,南東,1.5,南南東,-2.1,81.9,0,0,0,0
177,2021-01-18T02:56:00,0.5,南東,1.4,南南東,-2.3,80.1,0,0,0,0
178,2021-01-18T02:57:00,0.4,南東,1.2,南東,-2.4,79.9,0,0,0,0
179,2021-01-18T02:58:00,0.4,南東,1.1,南南東,-2.5,80,0,0,0,0
180,2021-01-18T02:59:00,0.4,南東,1.1,南南東,-2.5,80.3,0,0,0,0
181,2021-01-18T03:00:00,0.4,南東,1.1,南南東,-2.4,80.8,0,0,0,0
182,2021-01-18T03:01:00,0.4,南東,1.1,南南東,-2.4,81.1,0,0,0,0
183,2021-01-18T03:02:00,0.5,南東,1.4,南東,-2.3,81.2,0,0,0,0
184,2021-01-18T03:03:00,0.6,南東,1.4,南東,-2.3,80.9,0,0,0,0
185,2021-01-18T03:04:00,0.7,南南東,1.7,南東,-2.3,81,0,0,0,0
186,2021-01-18T03:05:00,0.7,南東,1.7,南東,-2.3,80.6,0,0,0,0
187,2021-01-18T03:06:00,0.8,南東,1.7,南東,-2.4,80.5,0,0,0,0
188,2021-01-18T03:07:00,0.8,南東,1.7,南東,-2.4,80.4,0,0,0,0
189,2021-01-18T03:08:00,0.8,南東,1.7,南東,-2.3,80.9,0,0,0,0
190,2021-01-18T03:09:00,0.7,東南東,1.7,南東,-2.2,81,0,0,0,0
191,2021-01-18T03:10:00,0.7,東南東,1.7,南東,-2.3,80.8,0,0,0,0
192,2021-01-18T03:11:00,0.6,東南東,1.7,南東,-2.4,80.4,0,0,0,0
193,2021-01-18T03:12:00,0.6,東南東,1.7,南東,-2.3,80.6,0,0,0,0
194,2021-01-18T03:13:00,0.6,東南東,1.7,南東,-2.3,80.8,0,0,0,0
195,2021-01-18T03:14:00,0.5,東南東,1.3,南東,-2.4,80.7,0,0,0,0
196,2021-01-18T03:15:00,0.5,東南東,1.3,南東,-2.1,81.1,0,0,0,0
197,2021-01-18T03:16:00,0.4,東,0.9,東北東,-2.3,80.8,0,0,0,0
198,2021-01-18T03:17:00,0.4,東南東,0.9,東北東,-2.3,80.3,0,0,0,0
199,2021-01-18T03:18:00,0.4,東南東,0.9,東北東,-2.3,80.6,0,0,0,0
200,2021-01-18T03:19:00,0.5,東南東,0.9,東北東,-2.4,80.3,0,0,0,0
201,2021-01-18T03:20:00,0.5,東南東,0.9,東北東,-2.4,80.5,0,0,0,0
202,2021-01-18T03:21:00,0.5,東南東,0.9,東北東,-2.2,81.1,0,0,0,0
203,2021-01-18T03:22:00,0.5,東南東,0.9,東北東,-2.1,81.4,0,0,0,0
204,2021-01-18T03:23:00,0.5,東南東,1.2,南南東,-2.1,80.8,0,0,0,0
205,2021-01-18T03:24:00,0.6,東南東,1.9,南,-2.3,79.9,0,0,0,0
206,2021-01-18T03:25:00,0.6,東南東,1.9,南,-2.6,78.9,0,0,0,0
207,2021-01-18T03:26:00,0.6,南東,1.9,南,-2.6,79.4,0,0,0,0
208,2021-01-18T03:27:00,0.6,南東,1.9,南,-2.7,79.8,0,0,0,0
209,2021-01-18T03:28:00,0.6,南東,1.9,南,-2.7,80.2,0,0,0,0
210,2021-01-18T03:29:00,0.6,南東,1.9,南,-2.7,80.6,0,0,0,0
211,2021-01-18T03:30:00,0.6,南東,1.9,南,-2.9,80.2,0,0,0,0
212,2021-01-18T03:31:00,0.6,南東,1.9,南,-2.8,80.8,0,0,0,0
213,2021-01-18T03:32:00,0.6,南東,1.9,南,-2.7,81.3,0,0,0,0
214,2021-01-18T03:33:00,0.5,南東,1.9,南,-2.6,82.1,0,0,0,0
215,2021-01-18T03:34:00,0.5,南東,1.6,南,-2.5,82.2,0,0,0,0
216,2021-01-18T03:35:00,0.4,南東,1.6,南,-2.3,82.2,0,0,0,0
217,2021-01-18T03:36:00,0.4,南東,1.6,南,-2.4,82,0,0,0,0
218,2021-01-18T03:37:00,0.4,南東,1.6,南,-2.6,80.7,0,0,0,0
219,2021-01-18T03:38:00,0.4,南東,1.6,南,-2.6,80.4,0,0,0,0
220,2021-01-18T03:39:00,0.4,南東,1.1,南南東,-2.6,81.2,0,0,0,0
221,2021-01-18T03:40:00,0.4,南東,1.1,南南東,-2.5,81.9,0,0,0,0
222,2021-01-18T03:41:00,0.4,南東,1.1,南南東,-2.6,81.2,0,0,0,0
223,2021-01-18T03:42:00,0.4,南東,1.1,南南東,-2.6,81.1,0,0,0,0
224,2021-01-18T03:43:00,0.4,南南東,1.1,南南東,-2.5,81.2,0,0,0,0
225,2021-01-18T03:44:00,0.4,南南東,1.2,南,-2.5,81.6,0,0,0,0
226,2021-01-18T03:45:00,0.5,南南東,1.2,南,-2.6,80.9,0,0,0,0
227,2021-01-18T03:46:00,0.5,南南東,1.2,南,-2.6,81.1,0,0,0,0
228,2021-01-18T03:47:00,0.5,南東,1.2,南,-2.5,81.7,0,0,0,0
229,2021-01-18T03:48:00,0.5,南東,1.2,南,-2.5,81.5,0,0,0,0
230,2021-01-18T03:49:00,0.6,南南東,1.4,南南東,-2.7,80.7,0,0,0,0
231,2021-01-18T03:50:00,0.7,南南東,1.4,南南東,-2.7,80.8,0,0,0,0
232,2021-01-18T03:51:00,0.7,南南東,1.4,南南東,-2.6,81.4,0,0,0,0
233,2021-01-18T03:52:00,0.7,南南東,1.4,南南東,-2.5,81.5,0,0,0,0
234,2021-01-18T03:53:00,0.7,南南東,1.5,南南東,-2.5,81.5,0,0,0,0
235,2021-01-18T03:54:00,0.8,南南東,1.5,南南東,-2.5,81.5,0,0,0,0
236,2021-01-18T03:55:00,0.8,南南東,1.5,南南東,-2.6,81.1,0,0,0,0
237,2021-01-18T03:56:00,0.8,南南東,1.5,南南東,-2.6,80.9,0,0,0,0
238,2021-01-18T03:57:00,0.8,南南東,1.5,南南東,-2.6,81.2,0,0,0,0
239,2021-01-18T03:58:00,0.8,南南東,1.5,南南東,-2.6,81.3,0,0,0,0
240,2021-01-18T03:59:00,0.8,南南東,1.5,南南東,-2.7,80.8,0,0,0,0
241,2021-01-18T04:00:00,0.7,南南東,1.5,南南東,-2.6,81.4,0,0,0,0
242,2021-01-18T04:01:00,0.7,南南東,1.5,南南東,-2.7,81.3,0,0,0,0
243,2021-01-18T04:02:00,0.7,南南東,1.5,南南東,-2.8,80.9,0,0,0,0
244,2021-01-18T04:03:00,0.7,南南東,1.5,南南東,-2.7,81,0,0,0,0
245,2021-01-18T04:04:00,0.6,南南東,1.5,南南東,-2.6,81.9,0,0,0,0
246,2021-01-18T04:05:00,0.6,南南東,1.5,南南東,-2.6,81.8,0,0,0,0
247,2021-01-18T04:06:00,0.6,南南東,1.5,南南東,-2.7,81.4,0,0,0,0
248,2021-01-18T04:07:00,0.6,南南東,1.5,南南東,-2.7,81.4,0,0,0,0
249,2021-01-18T04:08:00,0.6,南南東,1.3,南南東,-2.6,81.5,0,0,0,0
250,2021-01-18T04:09:00,0.6,南南東,1.3,南南東,-2.7,81.3,0,0,0,0
